EW2580 Weather Reports


Display with metric or nautical units.
time (UTC)temp
F
wind
direction
speed
MPH
gust
MPH
rain 1hr
in
rain 24hr
in
rain mn
in
humidity
%
barometer
mb
20260509223008 61 168 6.0 15.0 0.00 0.40 0.32 67 1005.7
20260509221508 61 126 3.0 9.0 0.00 0.40 0.32 66 1005.8
20260509220008 62 148 4.0 16.0 0.00 0.40 0.32 62 1005.6
20260509214506 62 151 3.0 7.0 0.00 0.40 0.32 64 1005.8
20260509213009 61 132 8.0 14.0 0.00 0.40 0.32 66 1005.8
20260509211504 62 99 2.0 10.0 0.00 0.40 0.32 65 1005.7
20260509210001 62 95 4.0 16.0 0.00 0.40 0.32 64 1006.2
20260509204503 62 177 2.0 11.0 0.00 0.40 0.32 64 1006.1
20260509203100 62 148 6.0 13.0 0.00 0.40 0.32 65 1006.3
20260509201557 61 117 2.0 12.0 0.00 0.40 0.32 69 1006.5
20260509200108 61 245 4.0 16.0 0.00 0.40 0.32 68 1006.8
20260509194555 61 151 7.0 12.0 0.00 0.40 0.32 70 1006.9
20260509193051 60 24 6.0 16.0 0.00 0.40 0.32 70 1007.0
20260509191547 59 84 6.0 11.0 0.00 0.40 0.32 74 1007.1
20260509190042 58 277 5.0 11.0 0.00 0.40 0.32 79 1007.6
20260509184538 56 313 1.0 5.0 0.00 0.40 0.32 83 1007.7
20260509183053 54 323 1.0 8.0 0.00 0.40 0.32 84 1007.8
20260509181534 54 234 5.0 11.0 0.00 0.40 0.32 84 1007.9
20260509180031 54 146 4.0 8.0 0.00 0.40 0.32 84 1007.8
20260509174542 53 175 1.0 8.0 0.00 0.40 0.32 87 1007.9
20260509173026 52 128 1.0 4.0 0.00 0.40 0.32 89 1008.0
20260509171532 52 161 3.0 8.0 0.00 0.40 0.32 89 1008.1
20260509170021 51 234 2.0 4.0 0.00 0.40 0.32 89 1008.1
20260509164520 51 273 0.0 7.0 0.00 0.40 0.32 90 1008.0
20260509163027 51 297 2.0 6.0 0.00 0.40 0.32 91 1007.9
20260509161525 51 128 1.0 3.0 0.00 0.40 0.32 91 1007.8
20260509160014 50 201 2.0 6.0 0.00 0.40 0.32 91 1008.0
20260509154512 50 154 1.0 5.0 0.00 0.40 0.32 91 1008.0
20260509153018 50 167 2.0 5.0 0.00 0.40 0.32 92 1008.1
20260509151512 50 150 1.0 8.0 0.00 0.40 0.32 92 1008.1
20260509150019 50 120 2.0 4.0 0.00 0.40 0.32 93 1008.1
20260509144504 49 162 2.0 6.0 0.00 0.40 0.32 93 1008.2
20260509143006 49 160 2.0 5.0 0.00 0.40 0.32 93 1008.3
20260509141503 49 155 2.0 3.0 0.00 0.40 0.32 93 1008.3
20260509140001 49 132 3.0 7.0 0.00 0.40 0.32 93 1008.3
20260509134500 49 128 4.0 8.0 0.00 0.42 0.32 94 1008.3
20260509133058 49 122 4.0 7.0 0.00 0.42 0.32 94 1008.4
20260509131517 48 126 2.0 4.0 0.00 0.42 0.32 94 1008.6
20260509130011 48 163 1.0 2.0 0.00 0.42 0.32 95 1008.7
20260509124509 48 163 1.0 2.0 0.01 0.42 0.32 95 1008.7
20260509123008 47 77 0.0 2.0 0.03 0.42 0.32 95 1008.7
20260509121504 47 65 0.0 1.0 0.05 0.42 0.32 95 1008.7
20260509120001 47 65 0.0 1.0 0.06 0.42 0.32 95 1009.0
20260509114503 47 65 0.0 2.0 0.06 0.41 0.31 95 1008.9
20260509113106 47 65 0.0 2.0 0.04 0.39 0.28 94 1008.9
20260509111558 46 309 0.0 2.0 0.02 0.37 0.27 94 1009.1
20260509110057 46 290 0.0 3.0 0.03 0.36 0.26 94 1009.0
20260509104553 46 136 1.0 2.0 0.04 0.35 0.25 94 1009.0
20260509103058 46 199 0.0 4.0 0.07 0.35 0.25 94 1008.9
20260509101547 46 189 1.0 3.0 0.08 0.35 0.25 94 1009.1
20260509100049 46 172 2.0 3.0 0.09 0.33 0.23 94 1009.2
20260509094546 46 146 1.0 3.0 0.09 0.31 0.21 94 1009.3
20260509093044 46 236 1.0 3.0 0.07 0.28 0.18 94 1009.2
20260509091541 46 131 2.0 4.0 0.07 0.26 0.16 94 1009.4
20260509090048 46 144 0.0 2.0 0.06 0.23 0.13 94 1009.4
20260509084540 46 144 0.0 3.0 0.06 0.22 0.12 94 1009.3
20260509083038 46 173 0.0 3.0 0.05 0.21 0.11 93 1009.2
20260509081537 46 185 0.0 2.0 0.03 0.19 0.09 93 1009.3
20260509080033 46 185 0.0 1.0 0.02 0.17 0.07 93 1009.8
20260509074534 46 185 1.0 2.0 0.01 0.16 0.06 93 1009.8
20260509073029 46 185 0.0 1.0 0.01 0.16 0.06 93 1009.9
20260509071527 46 185 1.0 2.0 0.01 0.16 0.06 93 1010.0
20260509070025 46 198 0.0 1.0 0.00 0.15 0.05 93 1010.3
20260509064523 46 207 0.0 2.0 0.00 0.15 0.05 93 1010.5
20260509063025 46 178 0.0 1.0 0.00 0.15 0.05 93 1010.8
20260509061519 46 188 1.0 3.0 0.01 0.15 0.05 93 1010.9
20260509060016 46 161 1.0 5.0 0.02 0.15 0.05 92 1011.3
20260509054515 46 167 2.0 4.0 0.03 0.15 0.05 92 1011.4
20260509053014 46 165 1.0 2.0 0.04 0.15 0.05 92 1011.7
20260509051512 46 165 1.0 2.0 0.03 0.14 0.04 92 1011.8
20260509050029 46 165 0.0 3.0 0.03 0.13 0.03 91 1011.8
20260509044509 46 165 1.0 4.0 0.03 0.12 0.02 91 1012.0
20260509043008 46 127 0.0 2.0 0.03 0.11 0.01 91 1012.0
20260509041504 47 139 0.0 3.0 0.05 0.11 0.01 90 1012.2
20260509040101 47 190 0.0 3.0 0.06 0.10 0.00 89 1012.2
20260509034600 47 309 0.0 3.0 0.07 0.09 0.09 89 1012.2
20260509033100 47 36 1.0 3.0 0.06 0.08 0.08 88 1012.2
20260509031623 48 57 2.0 7.0 0.04 0.06 0.06 86 1012.5
20260509030101 48 80 0.0 3.0 0.02 0.04 0.04 85 1012.5
20260509024604 49 148 4.0 9.0 0.00 0.02 0.02 84 1012.6
20260509023102 49 217 3.0 7.0 0.00 0.02 0.02 82 1012.6
20260509021557 49 226 5.0 9.0 0.00 0.02 0.02 83 1012.7
20260509020057 49 247 0.0 3.0 0.00 0.02 0.02 86 1012.6
20260509014558 49 248 0.0 3.0 0.00 0.02 0.02 85 1012.5
20260509013106 50 306 0.0 2.0 0.00 0.02 0.02 83 1012.5
20260509011555 50 326 0.0 3.0 0.00 0.02 0.02 80 1012.3
20260509010054 50 349 0.0 5.0 0.00 0.02 0.02 77 1012.1
20260509004554 51 344 1.0 6.0 0.00 0.02 0.02 75 1011.9
20260509003054 52 245 2.0 10.0 0.00 0.02 0.02 72 1011.7
20260509001554 52 231 2.0 10.0 0.00 0.02 0.02 70 1011.4
20260509000103 53 213 2.0 9.0 0.00 0.02 0.02 69 1011.1
20260508234550 53 234 0.0 5.0 0.00 0.02 0.02 68 1011.2
20260508233051 53 273 1.0 5.0 0.00 0.02 0.02 67 1011.0
20260508231551 53 132 2.0 8.0 0.00 0.02 0.02 66 1011.1
20260508230049 54 211 1.0 9.0 0.00 0.02 0.02 65 1010.9
20260508224554 55 196 3.0 9.0 0.00 0.02 0.02 62 1010.7